Weather in Timiryazevo

Russia / Penza Oblast     53°16′56″N   42°51′41″E
В апреле 2022 года жителям России запретили посещать сайт meteo.paraplan.net по решению Генеральной прокуратуры. Аудитория сайта уменьшилась в 10 раз. Владельцы сайта не видят смысла в поддержке погодного сервера в таких условиях. Сайт будет закрыт в октябре.
temp.,
°C
wind,
m/s
gust,
m/s
humid.,
%
clouds,
%
prec.,
mm/h
press.,
hPa
HPBL,
m
30 september, fri
fri3000:00+11se2287100 0.0 101719
03:00+12se3483100 0.0 1018111
06:00+10sse3391100 0.0 101934
09:00+13sse3577100 0.0 1020236
12:00+16sse4564100 0.0 1020663
15:00+17s3563100 0.0 1020773
18:00+15sse3572100 0.0 102087
21:00+13se3583100 1.2 1021105
1 october, sat
sat100:00+14sse3778100 0.0 1020162
03:00+13sse4979100 0.4 1020207
06:00+13sse51184100 0.0 1020236
09:00+15s61176100 0.1 1019398
12:00+17s61175100 0.6 1018572
15:00+17s61172100 1.4 1017866
18:00+16sse61483100 1.9 1015416
21:00+15s6139041 3.6 1014309
2 october, sun
sun200:00+14s51194100 0.0 1013258
03:00+14ssw5119494 0.1 1011285
06:00+13sw4996100 0.2 1012265
09:00+15wsw477856 0.2 1012428
12:00+15sw3677100 0.0 1012209
15:00+18ssw3564100 0.2 1011761
18:00+15ese3378100 0.1 100954
21:00+16sse41188100 0.3 1007271
3 october, mon
mon300:00+15se51491100 1.3 1006390
03:00+15se51288100 2.1 1005264
06:00+15se71681100 0.1 1004433
09:00+15sse91767100 0.1 1003672
12:00+18sse101667100 0.0 10031008
15:00+16sse101981100 0.6 10041145
18:00+13ssw61288100 3.2 1008756
21:00+12ssw4884100 3.5 1010639
4 october, tue
tue400:00+11ssw4986100 0.0 1011441
03:00+11ssw4884100 0.0 1012488
06:00+9ssw37915 0.0 1014211
09:00+10sw46730 0.0 1016557
12:00+13ssw57562 0.0 10171205
15:00+15ssw575020 0.0 10181660
18:00+11s48765 0.1 1020206
21:00+10sse37835 0.1 1020144